Temperature
22 21 21 20 20 19 19 19 19 18 18 18 18 18 18 18 18 18 18 18 18 18 18 17 17 17 17 17 17 17 17 17 17 18 18 18 18 17 17 17 17 17 17
22 21 20 20 20 19 19 19 19 19 19 18 18 18 18 18 18 17 18 17 18 18 17 17 17 17 17 17 17 17 17 17 17 18 18 19 19 18 18 17 17 17 17
23 22 21 20 20 19 19 19 19 19 19 18 18 18 18 18 18 17 17 17 18 18 18 17 17 17 17 17 17 17 17 17 17 17 18 19 20 19 18 17 17 17 16
23 22 21 21 20 20 19 19 19 19 19 18 18 18 18 18 18 17 17 17 17 17 17 17 17 17 17 17 17 17 17 17 17 17 17 17 18 18 19 18 17 17 16
23 22 22 21 20 20 19 19 19 19 19 18 18 18 18 18 17 17 17 17 17 17 17 17 17 17 17 17 16 16 16 16 17 17 17 17 17 17 18 18 18 17 17
23 22 22 21 20 20 19 19 19 19 19 19 18 18 18 17 17 17 17 17 17 17 17 17 17 16 16 16 16 16 16 16 16 16 16 17 17 17 17 18 17 17 17
23 22 22 21 20 20 19 19 18 18 18 18 18 18 18 18 17 17 17 17 17 17 17 16 16 16 16 16 16 16 16 16 16 16 16 16 16 16 16 17 17 17 17
23 22 21 21 20 20 20 19 18 18 18 18 18 18 18 17 17 17 17 17 17 17 16 16 16 16 16 16 16 16 16 15 15 15 15 15 16 16 16 16 16 17 17
23 23 22 21 21 20 20 19 18 18 18 18 18 18 17 17 17 17 17 16 16 16 16 16 16 16 16 16 15 15 15 15 15 15 15 15 15 15 15 15 15 16 17
23 23 22 21 21 20 20 19 18 18 18 18 18 17 17 17 17 17 17 16 16 16 16 16 16 16 16 15 15 15 15 15 15 15 15 15 15 15 15 15 15 15 15
23 22 22 21 21 20 20 19 18 18 18 18 17 17 17 17 17 16 16 16 16 16 16 15 15 15 15 15 15 15 15 14 14 14 14 14 14 14 14 14 14 15 15
23 22 21 21 20 20 19 19 18 18 18 17 17 17 17 17 16 16 16 16 16 15 15 15 15 15 15 15 15 15 14 14 14 14 14 14 14 14 14 14 14 14 14
22 21 21 20 20 19 19 18 18 18 18 17 17 17 17 16 16 16 16 15 15 15 15 15 15 15 14 14 14 14 14 14 14 14 14 14 14 13 13 13 13 14 14
22 21 20 20 19 18 18 18 18 18 17 17 17 17 16 16 16 16 15 15 15 15 15 14 14 14 14 14 14 14 14 14 13 13 13 13 13 13 13 13 13 13 13
21 21 20 19 18 18 18 18 17 17 17 17 17 16 16 16 16 15 15 15 15 15 14 14 14 14 14 14 14 13 13 13 13 13 13 13 13 13 13 13 13 13 13
21 20 19 18 18 18 17 17 17 17 17 16 16 16 15 15 15 15 15 15 14 14 14 14 14 14 14 14 14 14 13 13 13 13 13 13 13 13 13 13 13 13 12
20 19 19 18 18 18 17 17 17 17 16 16 16 15 15 15 15 15 15 14 14 14 14 14 13 13 14 14 14 14 13 13 13 13 13 13 13 13 12 13 13 12 12
20 19 19 18 18 18 17 17 17 16 16 16 15 15 15 15 14 14 14 14 14 14 13 13 13 13 13 14 14 13 13 13 12 12 12 12 12 12 12 12 12 12 12
19 19 18 18 18 17 17 17 17 16 16 15 15 15 14 14 14 14 14 13 13 13 13 13 13 13 13 13 13 13 12 12 12 12 12 12 12 12 12 12 11 11 12
19 18 18 17 17 17 17 16 16 16 15 15 15 15 14 14 14 13 13 13 13 13 13 13 13 13 13 13 13 13 12 12 12 12 12 12 12 12 12 11 11 11 11
18 17 17 17 16 16 16 16 16 16 15 15 15 14 14 14 13 13 13 13 13 12 12 12 12 12 12 12 13 12 12 12 12 12 12 12 12 12 11 11 11 11 11
17 17 17 16 16 16 16 15 15 15 15 14 14 14 14 13 13 13 13 12 12 12 12 12 12 12 12 12 12 12 12 12 11 11 11 11 11 11 11 11 11 11 11
17 17 16 16 16 15 15 15 15 15 14 14 14 14 13 13 13 13 12 12 12 12 12 12 12 12 12 12 12 12 12 12 11 11 11 11 11 11 11 11 11 11 11
16 16 16 16 16 15 15 15 15 14 14 14 14 13 13 13 13 12 12 12 12 12 12 12 12 12 12 12 12 11 11 11 11 11 11 11 11 11 11 11 11 11 10
16 16 15 15 15 15 15 14 14 14 14 14 13 13 13 13 12 12 12 12 12 12 12 11 11 11 11 11 11 11 11 11 10 10 10 11 11 11 11 10 10 10 10
15 15 15 14 15 15 14 14 14 14 14 13 13 13 13 12 12 12 12 12 12 12 11 11 11 11 11 11 11 10 10 10 10 10 10 10 10 10 10 10 10 10 10
Wind_Speed
4 4 4 4 4 3 3 3 3 3 2 1 1 1 0 1 1 1 2 2 1 1 1 2 1 1 1 2 2 1 1 1 1 2 2 2 3 2 2 2 2 2 2
5 4 4 4 4 4 4 4 3 3 3 2 1 1 0 0 1 1 2 2 1 1 1 1 1 1 1 1 2 2 2 1 1 2 2 2 3 3 3 2 2 2 2
6 6 5 4 4 4 4 3 3 3 2 2 2 1 1 1 0 1 1 2 2 1 2 1 2 2 1 1 1 2 2 2 1 2 2 2 1 1 3 2 2 2 1
5 6 6 5 4 4 4 4 3 2 2 2 2 1 0 0 1 1 1 1 1 1 1 1 1 2 1 1 2 1 2 3 2 1 1 3 3 2 1 3 2 2 2
6 6 6 5 5 4 4 4 4 3 2 2 2 2 1 1 0 0 1 1 1 1 1 1 1 1 1 2 2 2 3 2 2 2 1 2 2 3 3 2 2 2 2
6 6 6 5 5 5 5 4 4 3 3 2 2 1 1 1 1 1 0 1 0 0 1 1 1 1 1 1 1 1 1 2 2 3 2 2 2 2 3 4 4 3 2
6 6 6 6 5 5 5 4 4 3 3 2 2 2 1 1 1 1 1 2 1 1 1 1 1 2 1 1 1 0 1 1 2 2 3 3 3 3 3 4 4 4 3
7 6 6 5 5 5 5 5 4 4 3 3 2 2 2 1 0 1 1 1 2 2 2 1 1 1 2 2 1 1 1 1 2 2 2 2 2 3 3 4 4 5 4
6 6 6 5 5 5 5 5 4 3 3 2 3 2 1 1 1 1 1 1 2 2 1 1 1 1 2 2 2 1 2 1 2 2 2 3 2 3 3 4 4 5 6
6 5 5 5 4 5 5 4 4 4 3 2 2 2 1 1 0 1 1 2 2 2 1 2 1 2 2 2 2 1 1 2 2 2 3 3 3 3 3 4 4 5 6
5 5 4 4 5 5 5 5 4 3 3 2 2 2 1 1 0 0 1 1 2 2 2 2 2 2 2 2 2 2 2 3 3 3 3 3 4 4 3 3 4 4 4
5 5 5 4 4 4 4 4 3 3 3 3 2 2 2 1 0 0 1 1 1 1 1 2 1 2 2 2 2 3 3 3 4 4 3 4 3 4 4 4 5 4 4
5 5 4 4 4 4 3 3 3 3 2 3 3 2 2 1 1 1 1 1 1 1 1 1 1 2 2 2 3 3 3 4 4 4 4 4 4 5 4 5 5 5 5
5 5 4 4 4 3 3 3 3 3 3 3 3 2 2 2 1 1 1 1 1 1 1 1 1 2 2 2 3 3 3 4 4 4 4 5 5 5 6 5 5 5 6
5 4 4 4 3 3 3 3 3 2 2 2 2 2 2 1 1 1 1 1 1 1 1 2 2 2 2 2 3 4 3 3 3 3 4 4 4 5 5 5 5 5 5
5 4 4 4 3 3 2 2 3 2 2 2 1 1 1 1 1 1 1 1 1 1 1 2 2 3 3 4 4 5 5 4 3 4 4 4 3 4 4 5 5 6 6
5 4 4 4 3 3 3 3 2 3 2 2 1 1 1 1 0 1 1 1 1 1 1 2 2 2 3 3 3 4 4 4 3 4 4 4 3 3 4 4 6 7 8
4 4 3 3 2 2 3 2 3 3 2 2 1 1 1 0 0 0 1 1 1 2 2 2 2 2 2 2 3 4 4 3 4 4 4 4 4 4 5 6 6 6 6
4 3 3 2 2 2 3 3 2 2 2 2 1 0 0 0 0 0 1 1 1 1 1 1 1 2 2 2 3 5 4 3 3 3 3 4 4 4 5 6 7 7 6
3 3 3 2 2 3 3 3 3 2 2 1 1 1 1 1 1 1 1 1 1 2 2 1 2 2 2 1 2 5 4 3 3 3 2 1 2 4 5 5 6 7 7
3 3 3 3 2 2 3 3 3 2 2 2 1 1 1 1 1 0 1 1 1 1 2 2 2 2 2 1 1 3 3 4 4 4 3 2 1 3 5 7 6 7 8
3 3 3 2 2 3 3 3 3 2 2 2 2 1 1 1 0 0 1 1 1 1 1 1 2 1 1 2 1 1 3 6 4 5 4 3 3 4 6 5 5 8 9
3 3 2 2 2 2 3 3 2 2 2 2 2 2 1 1 1 1 1 1 2 2 2 2 2 2 2 1 1 2 3 5 4 4 4 5 5 5 5 4 6 7 5
3 3 2 2 2 2 3 3 3 3 3 3 2 2 2 1 1 1 1 2 2 2 2 3 3 3 2 3 3 2 2 3 3 4 4 5 6 5 4 4 4 3 4
3 3 3 2 2 2 3 3 3 3 3 3 2 2 2 1 1 1 1 1 2 2 3 3 3 4 4 4 7 6 5 5 5 5 5 4 3 4 3 4 4 4 4
2 3 3 2 2 2 2 3 4 4 4 3 2 2 1 1 1 1 1 2 1 1 0 3 4 3 3 3 5 6 6 7 8 6 5 4 5 5 5 5 5 5 4
Wind_Direction
135 131 135 133 131 132 133 137 139 137 154 165 195 182 111 37 45 52 40 27 10 11 348 346 14 326 343 324 307 284 215 235 251 248 227 197 192 196 207 210 219 206 205
142 138 143 145 140 136 140 148 158 156 176 179 205 213 222 340 57 38 50 25 17 359 19 355 325 344 334 318 313 295 291 267 254 280 266 231 182 188 196 205 208 232 218
164 159 158 157 152 150 153 153 161 164 184 192 193 182 174 208 125 65 63 32 19 33 11 350 326 341 320 336 305 297 291 291 278 304 299 288 285 235 174 200 210 224 231
170 167 165 164 164 162 153 146 146 158 172 186 201 205 235 316 355 351 53 53 30 20 19 340 329 314 320 343 309 324 296 285 277 248 286 312 332 293 238 191 184 209 224
171 167 165 162 164 159 153 149 148 146 154 186 195 220 245 271 305 46 80 356 40 16 2 356 343 322 324 347 347 349 316 288 285 280 256 253 257 273 278 268 257 222 210
169 166 160 156 160 159 158 155 153 154 155 163 169 200 268 298 337 360 335 269 276 36 12 341 337 317 325 338 327 328 335 323 317 300 293 279 274 271 271 271 272 271 238
167 163 160 162 162 163 164 161 155 159 162 167 177 194 222 223 246 292 309 297 313 344 8 338 319 325 315 301 298 278 317 310 297 289 287 286 288 299 290 286 286 284 264
164 164 164 169 172 172 172 166 162 167 172 176 181 196 226 239 268 312 318 319 327 349 341 306 300 309 308 295 283 278 269 290 278 283 292 286 288 290 288 286 290 285 274
162 164 165 171 173 170 168 167 162 168 179 185 180 183 193 264 311 299 288 315 327 329 332 315 293 287 291 295 283 291 297 298 285 279 267 272 281 285 290 285 281 283 287
158 158 163 167 165 161 154 158 159 164 169 169 167 149 154 163 223 284 344 339 335 340 326 310 300 290 285 279 275 270 280 273 277 285 295 285 287 286 281 282 279 280 285
155 150 153 154 152 152 150 152 154 157 157 145 146 145 148 155 157 333 330 334 340 344 336 328 315 308 314 308 295 292 282 272 274 276 275 276 287 291 290 284 279 277 277
151 145 140 138 140 141 140 139 147 148 145 144 144 146 148 155 165 3 309 340 358 356 359 350 327 303 300 295 289 292 296 290 286 286 289 289 284 281 282 284 280 279 277
152 147 140 134 133 132 130 135 139 137 151 152 158 154 158 169 209 253 263 289 313 344 359 4 346 336 320 298 287 284 285 283 284 284 285 288 290 283 281 276 278 279 274
164 154 145 139 127 126 134 143 141 141 150 160 168 167 175 192 215 220 235 245 253 266 293 306 314 325 327 318 303 295 287 282 282 282 282 286 286 283 282 277 275 276 279
168 153 146 135 134 127 136 149 145 144 148 161 160 167 174 189 212 220 232 242 250 253 268 282 291 301 294 308 304 296 290 287 288 285 284 285 286 294 286 288 290 284 277
167 158 146 142 141 141 150 149 145 147 149 145 142 152 172 199 207 224 227 225 247 285 283 283 292 298 314 14 347 306 299 293 293 296 296 288 276 278 259 271 283 284 275
167 161 153 149 148 149 152 156 146 143 147 157 157 171 193 199 221 238 205 208 227 254 274 288 293 303 342 16 352 322 307 301 300 298 299 302 316 307 293 268 254 259 257
176 171 169 159 153 146 144 151 150 151 155 157 152 168 184 190 194 239 246 228 235 252 273 297 306 308 336 18 335 311 291 291 291 295 297 299 308 319 312 296 290 280 270
186 178 178 173 162 155 152 155 151 140 143 135 139 157 192 183 194 247 257 261 258 266 278 292 301 303 325 337 305 297 294 286 292 296 303 303 306 348 324 296 294 292 288
170 172 169 164 164 172 161 164 161 149 150 149 154 149 171 199 238 262 267 273 265 268 277 298 302 306 313 325 299 295 290 299 302 297 295 338 324 343 318 292 292 291 293
160 162 167 169 176 177 173 183 174 172 171 159 157 161 177 218 224 231 272 273 277 294 304 307 309 316 320 328 323 316 309 310 304 304 304 336 79 307 298 288 289 293 296
167 165 165 171 171 171 180 186 183 177 169 167 169 184 212 228 190 212 251 266 283 269 284 290 299 313 318 348 22 262 288 304 302 304 313 340 355 297 286 284 288 289 287
180 175 167 177 183 181 181 193 191 180 176 176 177 189 212 222 212 233 249 255 260 275 298 303 310 324 333 344 163 208 256 278 289 310 332 315 289 275 268 250 261 272 285
193 180 179 200 201 202 197 191 178 179 181 180 183 185 198 209 196 254 265 286 298 303 305 311 317 322 327 335 340 324 301 258 274 298 282 245 250 258 284 283 273 285 304
200 191 197 208 207 214 205 182 168 177 182 182 186 194 199 189 212 254 307 291 326 327 304 310 314 317 321 350 353 330 321 320 328 316 295 297 304 307 312 312 313 312 309
208 205 205 212 211 216 192 176 174 181 186 192 198 213 216 195 232 233 301 25 331 93 267 307 306 334 346 331 329 326 323 319 312 301 297 305 308 308 313 315 314 309 309
Height
1517 1517 1518 1518 1519 1519 1519 1520 1520 1521 1521 1522 1522 1522 1522 1522 1522 1522 1521 1520 1520 1520 1520 1520 1519 1519 1519 1518 1519 1518 1518 1518 1518 1519 1519 1518 1518 1518 1518 1518 1518 1518 1518
1515 1516 1517 1518 1518 1519 1519 1520 1520 1521 1521 1521 1521 1521 1521 1522 1522 1522 1521 1520 1520 1519 1520 1519 1519 1519 1518 1517 1517 1517 1517 1518 1517 1518 1517 1517 1518 1517 1517 1517 1517 1517 1517
1514 1515 1516 1517 1518 1518 1519 1519 1520 1520 1520 1521 1521 1521 1521 1521 1522 1521 1521 1520 1519 1519 1518 1518 1518 1518 1517 1517 1516 1516 1516 1517 1517 1516 1517 1516 1516 1516 1516 1516 1515 1515 1515
1512 1514 1515 1516 1517 1518 1518 1519 1519 1519 1520 1520 1521 1521 1521 1521 1521 1520 1520 1520 1519 1518 1518 1517 1517 1516 1516 1516 1516 1515 1515 1515 1516 1515 1515 1516 1515 1516 1515 1515 1514 1514 1513
1511 1512 1514 1515 1517 1517 1518 1518 1518 1519 1519 1519 1520 1520 1521 1521 1521 1520 1519 1519 1519 1517 1517 1516 1516 1515 1515 1514 1514 1514 1514 1514 1514 1515 1514 1514 1514 1514 1514 1513 1513 1513 1513
1510 1512 1513 1514 1516 1517 1517 1518 1518 1518 1519 1519 1519 1519 1520 1520 1520 1519 1519 1519 1518 1517 1516 1515 1514 1514 1514 1513 1513 1512 1512 1512 1512 1512 1513 1513 1513 1513 1513 1512 1512 1511 1511
1508 1510 1512 1513 1514 1515 1516 1517 1517 1518 1518 1519 1519 1519 1519 1519 1519 1518 1518 1518 1518 1517 1515 1514 1513 1513 1512 1512 1511 1511 1511 1511 1510 1510 1511 1511 1511 1511 1511 1511 1510 1510 1509
1507 1509 1511 1512 1513 1514 1515 1516 1517 1517 1518 1518 1518 1518 1518 1519 1518 1517 1517 1517 1516 1515 1514 1513 1512 1512 1511 1511 1510 1510 1509 1509 1509 1509 1508 1509 1509 1509 1509 1510 1509 1508 1507
1506 1508 1509 1511 1512 1513 1514 1515 1516 1516 1517 1517 1517 1517 1517 1517 1517 1516 1516 1516 1514 1514 1513 1512 1511 1510 1510 1509 1509 1508 1507 1507 1507 1507 1507 1507 1508 1508 1507 1507 1507 1508 1505
1505 1507 1508 1509 1511 1512 1513 1514 1515 1515 1515 1516 1516 1516 1516 1516 1515 1515 1514 1513 1513 1512 1511 1511 1510 1509 1508 1507 1507 1507 1506 1506 1505 1505 1505 1505 1505 1505 1505 1505 1505 1505 1504
1504 1505 1507 1509 1510 1511 1512 1513 1514 1514 1514 1514 1514 1515 1515 1514 1514 1514 1513 1512 1512 1511 1510 1509 1508 1508 1507 1506 1505 1505 1504 1504 1504 1503 1503 1503 1502 1503 1503 1503 1502 1502 1501
1503 1505 1506 1508 1509 1510 1511 1512 1513 1513 1513 1513 1513 1513 1513 1513 1513 1513 1512 1511 1510 1509 1508 1508 1507 1506 1505 1505 1504 1503 1503 1502 1501 1501 1500 1500 1500 1500 1499 1499 1499 1499 1498
1503 1504 1505 1507 1508 1509 1510 1510 1511 1511 1512 1512 1512 1512 1512 1512 1511 1510 1510 1509 1508 1508 1507 1506 1505 1504 1504 1503 1502 1502 1501 1500 1499 1499 1498 1498 1497 1496 1497 1496 1496 1495 1495
1502 1503 1504 1506 1507 1507 1508 1509 1509 1509 1510 1510 1510 1510 1509 1509 1509 1508 1508 1507 1506 1506 1505 1504 1503 1503 1502 1501 1501 1500 1499 1498 1497 1496 1495 1495 1494 1493 1493 1493 1492 1492 1491
1501 1502 1503 1504 1505 1506 1506 1507 1507 1507 1508 1508 1508 1507 1507 1506 1506 1506 1505 1505 1504 1504 1503 1502 1502 1501 1500 1500 1499 1498 1497 1496 1495 1494 1493 1492 1491 1490 1490 1490 1489 1488 1488
1500 1501 1502 1503 1504 1504 1505 1505 1506 1506 1506 1506 1506 1505 1505 1504 1503 1503 1502 1502 1501 1501 1501 1500 1499 1499 1498 1497 1496 1495 1495 1494 1492 1491 1490 1490 1488 1487 1486 1486 1485 1485 1484
1498 1499 1500 1501 1502 1502 1503 1503 1504 1504 1504 1504 1504 1503 1503 1502 1501 1501 1500 1499 1499 1498 1498 1497 1496 1496 1495 1494 1493 1492 1492 1491 1490 1489 1488 1488 1487 1485 1484 1483 1482 1481 1480
1496 1498 1498 1499 1500 1501 1501 1502 1502 1502 1502 1502 1502 1501 1501 1500 1499 1498 1497 1497 1496 1496 1495 1494 1494 1493 1492 1491 1491 1490 1489 1489 1488 1486 1485 1484 1483 1482 1481 1480 1479 1478 1477
1495 1496 1497 1497 1498 1499 1499 1500 1500 1501 1501 1500 1500 1499 1499 1498 1497 1496 1496 1495 1494 1494 1493 1492 1491 1491 1490 1489 1489 1488 1487 1487 1485 1485 1483 1482 1481 1480 1478 1477 1476 1474 1473
1493 1494 1494 1495 1496 1496 1497 1498 1498 1499 1499 1499 1498 1498 1497 1496 1496 1495 1494 1494 1493 1492 1492 1491 1490 1489 1488 1487 1487 1486 1485 1485 1484 1482 1481 1480 1478 1477 1475 1474 1473 1471 1470
1490 1491 1492 1493 1494 1494 1495 1495 1496 1496 1497 1497 1497 1496 1496 1495 1494 1494 1493 1492 1492 1491 1490 1489 1488 1487 1486 1485 1485 1484 1483 1483 1482 1481 1480 1478 1476 1474 1472 1471 1470 1468 1467
1489 1489 1489 1490 1491 1492 1492 1493 1494 1494 1494 1495 1494 1494 1494 1494 1494 1493 1492 1491 1491 1490 1489 1488 1487 1487 1485 1484 1483 1482 1481 1480 1479 1478 1477 1475 1473 1471 1470 1468 1466 1465 1463
1487 1487 1487 1488 1489 1489 1489 1490 1491 1491 1492 1492 1492 1492 1492 1492 1492 1491 1491 1491 1490 1490 1489 1488 1487 1486 1485 1483 1481 1480 1479 1477 1477 1476 1474 1472 1470 1469 1467 1465 1463 1462 1461
1485 1485 1486 1486 1486 1487 1487 1488 1488 1488 1489 1490 1490 1490 1490 1490 1490 1490 1490 1489 1489 1488 1488 1487 1486 1485 1483 1482 1480 1479 1478 1476 1475 1473 1472 1470 1468 1466 1464 1463 1461 1459 1458
1483 1483 1484 1484 1484 1484 1485 1485 1485 1486 1487 1487 1488 1488 1488 1488 1488 1488 1488 1487 1487 1486 1486 1485 1484 1483 1482 1480 1479 1477 1476 1475 1473 1471 1470 1469 1467 1465 1463 1461 1459 1457 1455
1481 1481 1482 1482 1482 1481 1482 1483 1483 1484 1485 1486 1486 1487 1487 1487 1487 1486 1486 1485 1485 1484 1483 1482 1482 1480 1479 1477 1476 1475 1474 1472 1471 1469 1469 1467 1465 1463 1461 1459 1457 1455 1453